Time,TemperatureF,DewpointF,PressureIn,WindDirection,WindDirectionDegrees,WindSpeedMPH,WindSpeedGustMPH,Humidity,HourlyPrecipIn,Conditions,Clouds,dailyrainin,SoftwareType,DateUTC
2013-08-12 00:00:00,73.0,71.0,30.09,NW,321,0.0,-999.0,94,-99.99,,,-99.99,,2013-08-12 04:00:00,
2013-08-12 00:02:00,73.0,71.0,30.09,NW,321,0.0,-999.0,94,-99.99,,,-99.99,,2013-08-12 04:02:00,
2013-08-12 00:12:00,73.0,71.0,30.09,NW,321,0.0,-999.0,94,-99.99,,,-99.99,,2013-08-12 04:12:00,
2013-08-12 00:22:00,73.0,71.0,30.09,NW,321,0.0,-999.0,95,-99.99,,,-99.99,,2013-08-12 04:22:00,
2013-08-12 00:33:00,73.0,71.0,30.09,NW,321,0.0,-999.0,95,-99.99,,,-99.99,,2013-08-12 04:33:00,
2013-08-12 00:43:00,73.0,71.0,30.09,NW,321,0.0,-999.0,95,-99.99,,,-99.99,,2013-08-12 04:43:00,
2013-08-12 00:52:00,72.0,70.0,30.09,NW,321,0.0,-999.0,95,-99.99,,,-99.99,,2013-08-12 04:52:00,
2013-08-12 01:02:00,72.0,70.0,30.09,NW,321,0.0,-999.0,95,-99.99,,,-99.99,,2013-08-12 05:02:00,
2013-08-12 01:11:00,72.0,70.0,30.09,NW,321,0.0,-999.0,95,-99.99,,,-99.99,,2013-08-12 05:11:00,
2013-08-12 01:22:00,72.0,70.0,30.09,NW,321,0.0,-999.0,95,-99.99,,,-99.99,,2013-08-12 05:22:00,
2013-08-12 01:32:00,72.0,70.0,30.09,NW,321,0.0,-999.0,95,-99.99,,,-99.99,,2013-08-12 05:32:00,
2013-08-12 01:43:00,72.0,70.0,30.09,NW,321,0.0,-999.0,95,-99.99,,,-99.99,,2013-08-12 05:43:00,
2013-08-12 01:52:00,71.0,69.0,30.08,NW,321,0.0,-999.0,95,-99.99,,,-99.99,,2013-08-12 05:52:00,
2013-08-12 02:02:00,71.0,69.0,30.08,NW,321,0.0,-999.0,95,-99.99,,,-99.99,,2013-08-12 06:02:00,
2013-08-12 02:11:00,71.0,69.0,30.08,NW,321,0.0,-999.0,95,-99.99,,,-99.99,,2013-08-12 06:11:00,
2013-08-12 02:22:00,71.0,69.0,30.09,NW,321,0.0,-999.0,95,-99.99,,,-99.99,,2013-08-12 06:22:00,
2013-08-12 02:32:00,71.0,69.0,30.09,NW,321,0.0,-999.0,95,-99.99,,,-99.99,,2013-08-12 06:32:00,
2013-08-12 02:42:00,71.0,69.0,30.09,NW,321,0.0,-999.0,95,-99.99,,,-99.99,,2013-08-12 06:42:00,
2013-08-12 02:52:00,70.0,68.0,30.09,NW,321,0.0,-999.0,95,-99.99,,,-99.99,,2013-08-12 06:52:00,
2013-08-12 03:01:00,70.0,68.0,30.08,NW,321,0.0,-999.0,95,-99.99,,,-99.99,,2013-08-12 07:01:00,
2013-08-12 03:12:00,70.0,68.0,30.08,NW,321,0.0,-999.0,95,-99.99,,,-99.99,,2013-08-12 07:12:00,
2013-08-12 03:22:00,70.0,68.0,30.08,NW,321,0.0,-999.0,95,-99.99,,,-99.99,,2013-08-12 07:22:00,
2013-08-12 03:33:00,70.0,68.0,30.08,NW,321,0.0,-999.0,95,-99.99,,,-99.99,,2013-08-12 07:33:00,
2013-08-12 03:43:00,70.0,68.0,30.08,NW,321,0.0,-999.0,95,-99.99,,,-99.99,,2013-08-12 07:43:00,
2013-08-12 03:52:00,69.0,68.0,30.08,NW,321,0.0,-999.0,95,-99.99,,,-99.99,,2013-08-12 07:52:00,
2013-08-12 04:02:00,69.0,68.0,30.08,NW,321,0.0,-999.0,95,-99.99,,,-99.99,,2013-08-12 08:02:00,
2013-08-12 04:11:00,69.0,68.0,30.08,NW,321,0.0,-999.0,95,-99.99,,,-99.99,,2013-08-12 08:11:00,
2013-08-12 04:22:00,69.0,68.0,30.08,NW,321,0.0,-999.0,95,-99.99,,,-99.99,,2013-08-12 08:22:00,
2013-08-12 04:33:00,69.0,68.0,30.08,NW,313,0.0,-999.0,95,-99.99,,,-99.99,,2013-08-12 08:33:00,
2013-08-12 04:43:00,69.0,68.0,30.08,NW,313,0.0,-999.0,95,-99.99,,,-99.99,,2013-08-12 08:43:00,
2013-08-12 04:53:00,68.0,67.0,30.08,NW,313,0.0,-999.0,95,-99.99,,,-99.99,,2013-08-12 08:53:00,
2013-08-12 05:02:00,68.0,67.0,30.09,NW,313,0.0,-999.0,96,-99.99,,,-99.99,,2013-08-12 09:02:00,
2013-08-12 05:11:00,68.0,67.0,30.09,NW,313,0.0,-999.0,96,-99.99,,,-99.99,,2013-08-12 09:11:00,
2013-08-12 05:22:00,68.0,67.0,30.09,NW,313,0.0,-999.0,96,-99.99,,,-99.99,,2013-08-12 09:22:00,
2013-08-12 05:32:00,68.0,67.0,30.08,NW,313,0.0,-999.0,95,-99.99,,,-99.99,,2013-08-12 09:32:00,
2013-08-12 05:43:00,68.0,67.0,30.08,NW,313,0.0,-999.0,95,-99.99,,,-99.99,,2013-08-12 09:43:00,
2013-08-12 05:53:00,67.0,66.0,30.08,NW,313,0.0,-999.0,96,-99.99,,,-99.99,,2013-08-12 09:53:00,
2013-08-12 06:02:00,67.0,66.0,30.08,NW,313,0.0,-999.0,95,-99.99,,,-99.99,,2013-08-12 10:02:00,
2013-08-12 06:12:00,67.0,66.0,30.08,NW,313,0.0,-999.0,95,-99.99,,,-99.99,,2013-08-12 10:12:00,
2013-08-12 06:22:00,67.0,66.0,30.08,NW,313,0.0,-999.0,95,-99.99,,,-99.99,,2013-08-12 10:22:00,
2013-08-12 06:32:00,67.0,66.0,30.07,NW,313,0.0,-999.0,96,-99.99,,,-99.99,,2013-08-12 10:32:00,
2013-08-12 06:43:00,67.0,66.0,30.07,NW,313,0.0,-999.0,96,-99.99,,,-99.99,,2013-08-12 10:43:00,
2013-08-12 06:52:00,67.0,66.0,30.08,NW,313,0.0,-999.0,96,-99.99,,,-99.99,,2013-08-12 10:52:00,
2013-08-12 07:02:00,67.0,66.0,30.08,NW,313,0.0,-999.0,96,-99.99,,,-99.99,,2013-08-12 11:02:00,
2013-08-12 07:12:00,67.0,66.0,30.08,NW,313,0.0,-999.0,96,-99.99,,,-99.99,,2013-08-12 11:12:00,
2013-08-12 07:22:00,67.0,66.0,30.08,NW,313,0.0,-999.0,96,-99.99,,,-99.99,,2013-08-12 11:22:00,
2013-08-12 07:32:00,67.0,66.0,30.08,NW,313,0.0,-999.0,96,-99.99,,,-99.99,,2013-08-12 11:32:00,
2013-08-12 07:42:00,67.0,66.0,30.08,NW,313,0.0,-999.0,96,-99.99,,,-99.99,,2013-08-12 11:42:00,
2013-08-12 07:53:00,68.0,67.0,30.08,WNW,294,0.0,-999.0,96,-99.99,,,-99.99,,2013-08-12 11:53:00,
2013-08-12 08:02:00,69.0,68.0,30.07,WNW,294,0.0,-999.0,97,-99.99,,,-99.99,,2013-08-12 12:02:00,
2013-08-12 08:11:00,69.0,68.0,30.07,WNW,294,0.0,-999.0,97,-99.99,,,-99.99,,2013-08-12 12:11:00,
2013-08-12 08:22:00,69.0,68.0,30.07,WNW,294,0.0,-999.0,96,-99.99,,,-99.99,,2013-08-12 12:22:00,
2013-08-12 08:32:00,71.0,70.0,30.07,NW,319,0.0,-999.0,96,-99.99,,,-99.99,,2013-08-12 12:32:00,
2013-08-12 08:43:00,71.0,70.0,30.07,NW,319,0.0,-999.0,96,-99.99,,,-99.99,,2013-08-12 12:43:00,
2013-08-12 08:52:00,71.0,70.0,30.07,NW,321,0.0,-999.0,97,-99.99,,,-99.99,,2013-08-12 12:52:00,
2013-08-12 09:02:00,71.0,70.0,30.07,NW,321,0.0,-999.0,97,-99.99,,,-99.99,,2013-08-12 13:02:00,
2013-08-12 09:11:00,71.0,70.0,30.07,NW,321,0.0,-999.0,97,-99.99,,,-99.99,,2013-08-12 13:11:00,
2013-08-12 09:22:00,71.0,70.0,30.07,NW,321,0.0,-999.0,97,-99.99,,,-99.99,,2013-08-12 13:22:00,
2013-08-12 09:33:00,73.0,72.0,30.07,NNE,27,0.0,-999.0,97,-99.99,,,-99.99,,2013-08-12 13:33:00,
2013-08-12 09:43:00,73.0,72.0,30.07,NNE,27,0.0,-999.0,97,-99.99,,,-99.99,,2013-08-12 13:43:00,
2013-08-12 09:53:00,73.0,72.0,30.08,NNE,27,0.0,-999.0,96,-99.99,,,-99.99,,2013-08-12 13:53:00,
2013-08-12 10:11:00,73.0,72.0,30.08,NNE,27,0.0,-999.0,96,-99.99,,,-99.99,,2013-08-12 14:11:00,
2013-08-12 10:22:00,73.0,72.0,30.08,NNE,27,0.0,-999.0,96,-99.99,,,-99.99,,2013-08-12 14:22:00,
2013-08-12 10:32:00,74.0,72.0,30.07,NE,42,0.0,-999.0,94,-99.99,,,-99.99,,2013-08-12 14:32:00,
2013-08-12 10:42:00,74.0,72.0,30.07,NE,42,0.0,-999.0,94,-99.99,,,-99.99,,2013-08-12 14:42:00,
2013-08-12 10:53:00,75.0,73.0,30.07,ENE,67,0.0,-999.0,93,-99.99,,,-99.99,,2013-08-12 14:53:00,
2013-08-12 11:02:00,75.0,73.0,30.07,ENE,67,0.0,-999.0,93,-99.99,,,-99.99,,2013-08-12 15:02:00,
2013-08-12 11:11:00,76.0,74.0,30.06,ENE,67,0.0,-999.0,92,-99.99,,,-99.99,,2013-08-12 15:11:00,
2013-08-12 11:22:00,76.0,74.0,30.06,ENE,67,0.0,-999.0,92,-99.99,,,-99.99,,2013-08-12 15:22:00,
2013-08-12 11:43:00,78.0,74.0,30.07,South,171,0.0,-999.0,87,-99.99,,,-99.99,,2013-08-12 15:43:00,
2013-08-12 11:52:00,78.0,74.0,30.06,South,171,0.0,-999.0,87,-99.99,,,-99.99,,2013-08-12 15:52:00,
2013-08-12 12:01:00,78.0,74.0,30.06,South,171,0.0,-999.0,87,-99.99,,,-99.99,,2013-08-12 16:01:00,
2013-08-12 12:11:00,78.0,74.0,30.06,South,171,0.0,-999.0,87,-99.99,,,-99.99,,2013-08-12 16:11:00,
2013-08-12 12:22:00,78.0,74.0,30.06,South,171,0.0,-999.0,87,-99.99,,,-99.99,,2013-08-12 16:22:00,
2013-08-12 12:43:00,78.0,74.0,30.06,North,5,0.0,-999.0,88,-99.99,,,-99.99,,2013-08-12 16:43:00,
2013-08-12 12:53:00,78.0,75.0,30.06,North,5,0.0,-999.0,90,-99.99,,,-99.99,,2013-08-12 16:53:00,
2013-08-12 13:02:00,78.0,75.0,30.06,North,5,0.0,-999.0,90,-99.99,,,-99.99,,2013-08-12 17:02:00,
2013-08-12 13:11:00,77.0,74.0,30.05,North,5,0.0,-999.0,91,-99.99,,,-99.99,,2013-08-12 17:11:00,
2013-08-12 13:32:00,77.0,74.0,30.05,North,5,0.0,-999.0,91,-99.99,,,-99.99,,2013-08-12 17:32:00,
2013-08-12 13:43:00,77.0,75.0,30.04,WNW,300,0.0,-999.0,93,-99.99,,,-99.99,,2013-08-12 17:43:00,
2013-08-12 14:02:00,77.0,74.0,30.03,NW,309,1.0,-999.0,92,-99.99,,,-99.99,,2013-08-12 18:02:00,
2013-08-12 14:11:00,77.0,75.0,30.03,NNE,28,2.0,-999.0,93,-99.99,,,-99.99,,2013-08-12 18:11:00,
2013-08-12 14:24:00,76.0,74.0,30.03,NE,35,2.0,-999.0,93,-99.99,,,-99.99,,2013-08-12 18:24:00,
2013-08-12 14:43:00,76.0,74.0,30.03,SW,234,0.0,-999.0,92,-99.99,,,-99.99,,2013-08-12 18:43:00,
2013-08-12 15:02:00,76.0,74.0,30.02,East,86,0.0,-999.0,92,-99.99,,,-99.99,,2013-08-12 19:02:00,
2013-08-12 15:22:00,76.0,74.0,30.02,North,5,1.0,-999.0,93,-99.99,,,-99.99,,2013-08-12 19:22:00,
2013-08-12 15:33:00,76.0,74.0,30.01,ENE,78,2.0,-999.0,92,-99.99,,,-99.99,,2013-08-12 19:33:00,
2013-08-12 15:43:00,74.0,72.0,30.03,NNE,30,5.0,-999.0,92,-99.99,,,-99.99,,2013-08-12 19:43:00,
2013-08-12 16:02:00,73.0,71.0,30.02,NE,43,4.0,-999.0,93,-99.99,,,-99.99,,2013-08-12 20:02:00,
2013-08-12 16:22:00,74.0,72.0,30.01,East,94,1.0,-999.0,93,-99.99,,,-99.99,,2013-08-12 20:22:00,
2013-08-12 16:32:00,74.0,72.0,30.01,ESE,118,2.0,-999.0,92,-99.99,,,-99.99,,2013-08-12 20:32:00,
2013-08-12 16:42:00,75.0,72.0,30.00,SSE,155,2.0,-999.0,90,-99.99,,,-99.99,,2013-08-12 20:42:00,
2013-08-12 16:52:00,76.0,72.0,29.99,SSW,198,1.0,-999.0,88,-99.99,,,-99.99,,2013-08-12 20:52:00,
2013-08-12 17:01:00,76.0,72.0,29.99,SSW,198,1.0,-999.0,88,-99.99,,,-99.99,,2013-08-12 21:01:00,
2013-08-12 17:12:00,77.0,73.0,29.98,SE,134,1.0,-999.0,87,-99.99,,,-99.99,,2013-08-12 21:12:00,
2013-08-12 17:32:00,77.0,73.0,29.98,SE,134,1.0,-999.0,87,-99.99,,,-99.99,,2013-08-12 21:32:00,
2013-08-12 17:43:00,79.0,74.0,29.97,SSW,205,2.0,-999.0,85,-99.99,,,-99.99,,2013-08-12 21:43:00,
2013-08-12 17:52:00,80.0,75.0,29.97,SSE,147,1.0,-999.0,84,-99.99,,,-99.99,,2013-08-12 21:52:00,
2013-08-12 18:02:00,80.0,75.0,29.97,SSE,147,1.0,-999.0,84,-99.99,,,-99.99,,2013-08-12 22:02:00,
2013-08-12 18:11:00,80.0,74.0,29.96,SE,142,1.0,-999.0,83,-99.99,,,-99.99,,2013-08-12 22:11:00,
2013-08-12 18:32:00,80.0,75.0,29.96,SSE,155,2.0,-999.0,84,-99.99,,,-99.99,,2013-08-12 22:32:00,
2013-08-12 18:43:00,82.0,76.0,29.96,South,177,1.0,-999.0,81,-99.99,,,-99.99,,2013-08-12 22:43:00,
2013-08-12 18:53:00,82.0,76.0,29.96,South,177,1.0,-999.0,81,-99.99,,,-99.99,,2013-08-12 22:53:00,
2013-08-12 19:02:00,81.0,75.0,29.95,SE,132,2.0,-999.0,81,-99.99,,,-99.99,,2013-08-12 23:02:00,
2013-08-12 19:11:00,81.0,75.0,29.94,SE,132,0.0,-999.0,82,-99.99,,,-99.99,,2013-08-12 23:11:00,
2013-08-12 19:22:00,81.0,75.0,29.94,SE,132,0.0,-999.0,83,-99.99,,,-99.99,,2013-08-12 23:22:00,
2013-08-12 19:53:00,80.0,75.0,29.95,SE,132,0.0,-999.0,85,-99.99,,,-99.99,,2013-08-12 23:53:00,
2013-08-12 20:12:00,79.0,75.0,29.94,SE,132,0.0,-999.0,88,-99.99,,,-99.99,,2013-08-13 00:12:00,
2013-08-12 20:24:00,77.0,74.0,29.95,SE,132,0.0,-999.0,89,-99.99,,,-99.99,,2013-08-13 00:24:00,
2013-08-12 20:45:00,77.0,74.0,29.95,SE,132,0.0,-999.0,89,-99.99,,,-99.99,,2013-08-13 00:45:00,
2013-08-12 20:53:00,77.0,74.0,29.95,SSE,157,0.0,-999.0,90,-99.99,,,-99.99,,2013-08-13 00:53:00,
2013-08-12 21:13:00,76.0,73.0,29.94,SSE,157,0.0,-999.0,90,-99.99,,,-99.99,,2013-08-13 01:13:00,
2013-08-12 21:23:00,76.0,73.0,29.94,SSE,157,0.0,-999.0,90,-99.99,,,-99.99,,2013-08-13 01:23:00,
2013-08-12 21:42:00,75.0,72.0,29.94,SSE,157,0.0,-999.0,90,-99.99,,,-99.99,,2013-08-13 01:42:00,
2013-08-12 21:55:00,75.0,72.0,29.93,SSE,157,0.0,-999.0,91,-99.99,,,-99.99,,2013-08-13 01:55:00,
2013-08-12 22:11:00,75.0,73.0,29.95,SSE,157,0.0,-999.0,92,-99.99,,,-99.99,,2013-08-13 02:11:00,
2013-08-12 22:22:00,74.0,71.0,29.94,SW,236,2.0,-999.0,90,-99.99,,,-99.99,,2013-08-13 02:22:00,
2013-08-12 22:43:00,74.0,71.0,29.94,SW,236,1.0,-999.0,90,-99.99,,,-99.99,,2013-08-13 02:43:00,
2013-08-12 22:52:00,73.0,70.0,29.94,West,259,3.0,-999.0,90,-99.99,,,-99.99,,2013-08-13 02:52:00,
2013-08-12 23:22:00,71.0,69.0,29.95,SW,230,1.0,-999.0,92,-99.99,,,-99.99,,2013-08-13 03:22:00,
2013-08-12 23:54:00,70.0,68.0,29.94,SSW,202,1.0,-999.0,93,-99.99,,,-99.99,,2013-08-13 03:54:00,